Location: Alfortville
(48.8058°N, 2.4204°E)
Time: 03:54:38
(UTC+00:00)

BlueWalker 3 - Visible Passes

Search period start: 07 December 2022 00:00
Search period end: 17 December 2022 00:00
Orbit: 501 x 518 km, 53.2° (Epoch: 06 December)

Date Brightness Start Highest point End Pass type
(mag) Time Alt. Az. Time Alt. Az. Time Alt. Az.
07 Dec 1.8 17:43:59 10° WNW 17:47:55 78° NNE 17:49:06 43° ESE visible
07 Dec 4.9 19:23:00 10° W 19:23:57 15° W 19:23:57 15° W visible
08 Dec 1.8 17:25:35 10° WNW 17:29:31 80° NNE 17:31:51 23° ESE visible
08 Dec 4.4 19:04:38 10° W 19:06:42 21° WSW 19:06:42 21° WSW visible
09 Dec 1.9 17:07:10 10° WNW 17:11:06 83° NNE 17:14:45 12° ESE visible
09 Dec 4.0 18:46:17 10° W 18:49:26 24° SW 18:49:37 23° SW visible
10 Dec 1.9 16:48:45 10° WNW 16:52:41 87° NNE 16:56:36 10° ESE visible
10 Dec 4.2 18:27:54 10° W 18:30:59 22° SW 18:32:47 16° S visible
11 Dec 2.0 16:30:20 10° WNW 16:34:16 90° NNE 16:38:10 10° ESE visible
11 Dec 4.4 18:09:33 10° W 18:12:32 21° SW 18:15:30 10° S visible
12 Dec 4.6 17:51:11 10° W 17:54:05 20° SW 17:56:58 10° S visible
13 Dec 4.8 17:32:49 10° W 17:35:38 19° SW 17:38:25 10° S visible
14 Dec 4.9 17:14:28 10° W 17:17:10 18° SW 17:19:50 10° S visible
15 Dec 5.0 16:56:07 10° W 16:58:42 17° SW 17:01:16 10° S visible
16 Dec 5.2 16:37:47 10° W 16:40:13 16° SW 16:42:39 10° S visible
